[[{"header":{"parameterUnit":"m.s-1","parameterCategory":2,"la1":30.2991,"la2":30.254,"lo1":-89.0895,"lo2":-89.0444,"dy":0.0017,"dx":0.0017,"nx":28,"ny":28,"refTime":"2023-07-27T09:00:00:Z","depth":"0","parameterNumber":2,"parameterNumberName":"U-component_of_CURRENTS"},"data":[0,0,0,0,0,0,0,0,0,0,0,0,0,0,0,0,0,0,0,0,0,0,0,0,0,0,0,0,0,0,0,0,0,0,0,0,0,0,0,0,0,0,0,0,0,0,0,0,0,0,0,0,0,0,0,0,0,0,0.1949,0.1948,0,0.1841,0.184,0.1838,0.177,0.1769,0.1769,0.1769,0.1619,0.1615,0.1611,0,0,0,0,0,0,0,0,0,0,0,0,0,0.2039,0.2037,0.1949,0.1948,0.1947,0.1842,0.184,0.1838,0.177,0.1769,0.1769,0.1769,0.162,0.1616,0.1611,0,0,0,0,0,0,0,0,0,0,0,0,0,0.1969,0.2037,0.195,0.1904,0.1899,0.1842,0.184,0.1837,0.177,0.1769,0.1769,0.1769,0.1622,0.1616,0.161,0.1574,0,0,0.1592,0.1589,0,0,0,0,0,0,0,0,0.1973,0.1965,0.1911,0.1907,0.1901,0.1822,0.1816,0.1749,0.177,0.1814,0.1769,0.1769,0.1686,0.1675,0.1649,0.1567,0.1561,0.1591,0.1588,0.1585,0.1584,0,0,0,0,0,0,0,0.1978,0.1969,0.1902,0.191,0.1904,0.1869,0.1859,0.1803,0.1748,0.181,0.1806,0.1801,0.1682,0.1655,0.1645,0.1558,0.1592,0.1586,0.1583,0.158,0.1549,0.1552,0,0,0,0,0,0,0.2002,0.1974,0.1906,0.19,0.1942,0.1868,0.1856,0.1844,0.1749,0.1736,0.1801,0.1798,0.1665,0.1652,0.164,0.1712,0.1585,0.158,0.1576,0.1547,0.155,0.1553,0,0,0,0,0,0,0.2004,0.1997,0.191,0.1938,0.1925,0.1867,0.1854,0.1842,0.1832,0.1743,0.1728,0.1805,0.1665,0.1648,0.1632,0.1701,0.1577,0.1572,0.1543,0.1548,0.1551,0.178,0,0,0,0,0,0,0.2007,0.1998,0.2003,0.1939,0.1924,0.1907,0.1854,0.184,0.183,0.1825,0.1741,0.1726,0.1663,0.1642,0.1626,0.1691,0.1567,0.154,0.1545,0.155,0.1769,0.1792,0.1811,0,0,0,0,0,0.2011,0.2027,0.2004,0.1996,0.1931,0.1909,0.1898,0.1853,0.1831,0.1841,0.1796,0.173,0.1664,0.1639,0.162,0.1685,0.1537,0.1544,0.155,0.176,0.1787,0.181,0,0,0,0,0,0,0.2075,0.202,0.1994,0.1993,0.1966,0.1899,0.1905,0.1871,0.184,0.1837,0.1753,0.1736,0.175,0.1681,0.1656,0.1692,0.1594,0.1597,0.176,0.1785,0.1805,0.1858,0.1562,0,0,0,0,0,0.209,0.2087,0.2032,0.2038,0.2027,0.1968,0.1955,0.1924,0.1886,0.1871,0.1814,0.1768,0.1756,0.1744,0.17,0.171,0.1762,0.1743,0.1764,0.1782,0.1813,0.1983,0.2025,0.1573,0.1573,0.1573,0,0,0.2116,0.209,0.2086,0.2052,0.2023,0.2026,0.196,0.1954,0.1968,0.1859,0.1865,0.1829,0.1773,0.1798,0.1799,0.1754,0.1944,0.179,0.1806,0.1828,0.1995,0.204,0.208,0.1577,0.1577,0.1576,0,0,0.2177,0.2145,0.2163,0.2146,0.2118,0.2083,0.2092,0.2037,0.2028,0.2024,0.1976,0.2002,0.1926,0.1944,0.1935,0.2044,0.2045,0.2013,0.2168,0.2334,0.2374,0.241,0.2575,0.2623,0.203,0.2031,0.2031,0,0.2219,0.2222,0.217,0.2186,0.2189,0.2121,0.215,0.2132,0.2083,0.2109,0.2054,0.2067,0.2013,0.2113,0.2154,0.2099,0.219,0.2081,0.237,0.2406,0.2439,0.2598,0.2649,0.2042,0.2041,0.204,0.2039,0,0.2283,0.2291,0.2308,0.2303,0.2301,0.2317,0.2284,0.2293,0.2269,0.2261,0.2335,0.2295,0.232,0.2313,0.2262,0.2466,0.2457,0.2381,0.2322,0.25,0.2654,0.2704,0.2059,0.2055,0.2051,0.2049,0,0,0.2371,0.2357,0.2364,0.2376,0.2364,0.2365,0.2416,0.2451,0.2508,0.2495,0.2602,0.2614,0.2614,0.2609,0.2576,0.2711,0.3025,0.2659,0.2663,0.2852,0.343,0.3474,0.353,0.3017,0.3026,0.3033,0.3461,0,0.2445,0.2489,0.2471,0.2526,0.2543,0.2523,0.2574,0.2602,0.2622,0.2701,0.2739,0.28,0.2721,0.2758,0.2897,0.296,0.3158,0.2917,0.3201,0.3211,0.3254,0.359,0.3564,0.3948,0.3508,0.3516,0.3522,0,0.2519,0.2534,0.2594,0.2627,0.2638,0.267,0.2753,0.279,0.2892,0.292,0.3028,0.3031,0.3214,0.3112,0.3429,0.3284,0.3409,0.3472,0.3489,0.3484,0.3348,0.3687,0.4053,0.3882,0.3597,0.3591,0.3586,0,0.2583,0.2627,0.2677,0.2685,0.2712,0.2761,0.279,0.2871,0.2922,0.3081,0.3151,0.3336,0.3426,0.3624,0.3729,0.3626,0.4084,0.3945,0.4131,0.4133,0.4144,0.4132,0.4402,0.4268,0.4267,0.4266,0.4265,0,0.2657,0.2694,0.2708,0.2728,0.2798,0.2816,0.2913,0.2969,0.3088,0.3176,0.3274,0.3398,0.3565,0.3784,0.3892,0.4196,0.4243,0.4273,0.4295,0.4221,0.4212,0.4077,0.3952,0.4282,0.4278,0.4275,0.4272,0,0.2691,0.271,0.2754,0.28,0.2817,0.2863,0.2935,0.2999,0.3126,0.3259,0.3323,0.3528,0.3828,0.4013,0.4341,0.4411,0.4587,0.4763,0.4665,0.467,0.4642,0.453,0.4682,0.4562,0.5088,0.5093,0.5097,0,0.2699,0.2727,0.2776,0.2788,0.2803,0.2864,0.2894,0.3002,0.3069,0.3318,0.339,0.3722,0.3922,0.4449,0.4693,0.5036,0.479,0.5182,0.4981,0.4762,0.4653,0.4354,0.4214,0.5103,0.5106,0.5109,0.5111,0,0.2693,0.2717,0.2734,0.2765,0.2795,0.2828,0.2893,0.2951,0.3092,0.3248,0.3473,0.3675,0.419,0.4535,0.4992,0.5177,0.495,0.525,0.5076,0.479,0.4437,0.4286,0.4667,0.5136,0.5134,0.5132,0.5131,0.513,0.2664,0.267,0.2691,0.2718,0.2739,0.2765,0.2786,0.2888,0.302,0.3234,0.3452,0.3764,0.4307,0.4954,0.5095,0.5344,0.5155,0.5269,0.5195,0.494,0.4703,0.5151,0.5576,0.5576,0.5576,0.5576,0.5576,0,0.2598,0.261,0.2632,0.2646,0.2635,0.2683,0.2748,0.2779,0.2906,0.3193,0.3415,0.3989,0.4465,0.4884,0.5365,0.5284,0.5024,0.516,0.4718,0.4613,0.5125,0.4995,0.5248,0.5248,0.5248,0.5248,0.5249,0.5249,0.256,0.255,0.2569,0.2528,0.2534,0.2515,0.2539,0.2635,0.2818,0.315,0.3468,0.3753,0.4334,0.4952,0.5153,0.5115,0.4669,0.4573,0.4403,0.4729,0.4727,0.4726,0.4575,0.4735,0.4735,0.3748,0.3741,0.3736]},{"header":{"parameterUnit":"m.s-1","parameterCategory":2,"la1":30.2991,"la2":30.254,"lo1":-89.0895,"lo2":-89.0444,"dy":0.0017,"dx":0.0017,"nx":28,"ny":28,"refTime":"2023-07-27T09:00:00:Z","depth":"0","parameterNumber":3,"parameterNumberName":"V-component_of_CURRENTS"},"data":[0,0,0,0,0,0,0,0,0,0,0,0,0,0,0,0,0,0,0,0,0,0,0,0,0,0,0,0,0,0,0,0,0,0,0,0,0,0,0,0,0,0,0,0,0,0,0,0,0,0,0,0,0,0,0,0,0,0,-0.0154,-0.0155,0,-0.0263,-0.0264,-0.0266,-0.0349,-0.035,-0.0351,-0.0352,-0.0471,-0.0473,-0.0476,0,0,0,0,0,0,0,0,0,0,0,0,0,-0.0031,-0.0033,-0.0154,-0.0156,-0.0157,-0.0263,-0.0264,-0.0266,-0.0349,-0.035,-0.0351,-0.0352,-0.047,-0.0473,-0.0476,0,0,0,0,0,0,0,0,0,0,0,0,0,-0.0106,-0.0033,-0.0154,-0.0211,-0.0218,-0.0263,-0.0265,-0.0266,-0.0349,-0.035,-0.0351,-0.0352,-0.0469,-0.0473,-0.0476,-0.0474,0,0,-0.0487,-0.0489,0,0,0,0,0,0,0,0,-0.0102,-0.0111,-0.0202,-0.0208,-0.0215,-0.0294,-0.0265,-0.0337,-0.0348,-0.0299,-0.0352,-0.0353,-0.0412,-0.042,-0.0438,-0.048,-0.0485,-0.0488,-0.049,-0.0491,-0.0493,0,0,0,0,0,0,0,-0.0097,-0.0107,-0.0197,-0.0203,-0.0211,-0.0236,-0.0248,-0.0279,-0.0347,-0.0303,-0.0309,-0.0322,-0.0416,-0.0434,-0.0441,-0.0487,-0.0488,-0.0491,-0.0493,-0.0495,-0.0522,-0.0521,0,0,0,0,0,0,-0.0082,-0.0102,-0.0194,-0.02,-0.0161,-0.0238,-0.0251,-0.0267,-0.0347,-0.036,-0.0321,-0.0325,-0.0427,-0.0437,-0.0446,-0.0426,-0.0491,-0.0495,-0.0497,-0.0524,-0.0522,-0.0521,0,0,0,0,0,0,-0.0079,-0.0089,-0.0189,-0.0153,-0.0168,-0.0238,-0.0256,-0.0269,-0.0289,-0.036,-0.0374,-0.0329,-0.0428,-0.044,-0.0468,-0.0433,-0.0496,-0.05,-0.0526,-0.0523,-0.0521,-0.0402,0,0,0,0,0,0,-0.0075,-0.0088,-0.0085,-0.0152,-0.017,-0.0203,-0.0255,-0.027,-0.0295,-0.0302,-0.0371,-0.0384,-0.043,-0.0462,-0.0471,-0.0439,-0.0503,-0.0527,-0.0525,-0.0522,-0.0408,-0.0396,-0.0386,0,0,0,0,0,-0.007,-0.0059,-0.0084,-0.0095,-0.0167,-0.0202,-0.0212,-0.0266,-0.0294,-0.0291,-0.0341,-0.0382,-0.0451,-0.0464,-0.0475,-0.0443,-0.0529,-0.0525,-0.0522,-0.0413,-0.0398,-0.0386,0,0,0,0,0,0,0.0003,-0.0069,-0.0098,-0.0107,-0.0146,-0.0216,-0.0215,-0.0256,-0.0294,-0.03,-0.0371,-0.0385,-0.0395,-0.0434,-0.0446,-0.0442,-0.0493,-0.0492,-0.0406,-0.0393,-0.0382,-0.0333,-0.0506,0,0,0,0,0,0.002,0.0008,-0.0062,-0.0063,-0.0082,-0.0146,-0.0165,-0.0203,-0.025,-0.0269,-0.0319,-0.0362,-0.0388,-0.0404,-0.0438,-0.0437,-0.045,-0.0422,-0.041,-0.0401,-0.0368,-0.037,-0.0356,-0.051,-0.051,-0.051,0,0,0.0051,0.0011,0.0005,-0.0048,-0.0083,-0.0092,-0.016,-0.018,-0.0181,-0.0274,-0.0281,-0.0329,-0.0381,-0.0382,-0.0388,-0.0411,-0.0362,-0.0397,-0.0388,-0.036,-0.0365,-0.035,-0.0336,-0.0508,-0.0508,-0.0509,0,0,0.0108,0.007,0.0076,0.0047,-0.0001,-0.004,-0.0042,-0.0107,-0.0128,-0.0145,-0.0206,-0.0226,-0.0278,-0.0299,-0.0318,-0.0264,-0.0308,-0.028,-0.0182,-0.0185,-0.0172,-0.016,-0.0147,-0.0136,-0.0272,-0.0271,-0.0271,0,0.015,0.0139,0.0078,0.0077,0.0068,-0.001,0.0003,-0.0025,-0.0088,-0.0083,-0.0128,-0.0172,-0.0229,-0.0209,-0.0195,-0.0236,-0.0242,-0.0229,-0.0169,-0.0158,-0.0148,-0.0138,-0.0126,-0.0265,-0.0266,-0.0266,-0.0267,0,0.02,0.0197,0.0204,0.0174,0.0162,0.0162,0.0111,0.0105,0.0069,0.0041,0.0047,-0.0024,-0.0043,-0.0067,-0.0118,-0.0071,-0.0098,-0.0157,-0.0197,-0.0125,-0.0119,-0.0109,-0.0256,-0.0259,-0.026,-0.0262,0,0,0.0272,0.0244,0.0246,0.0255,0.0212,0.0209,0.0226,0.0221,0.0254,0.0199,0.0246,0.0189,0.0155,0.0133,0.0069,0.0064,0.0112,-0.0006,-0.001,0.0018,0.0126,0.0101,0.0108,0.0059,0.0062,0.0063,0.0107,0,0.0329,0.0353,0.0325,0.0367,0.0375,0.0335,0.0365,0.0358,0.0344,0.0371,0.032,0.033,0.0229,0.023,0.0212,0.0138,0.0142,0.0108,0.0044,0.0044,0.002,0.012,0.0196,0.0241,0.0116,0.0117,0.0118,0,0.0378,0.0388,0.0433,0.0464,0.0469,0.0493,0.0537,0.0553,0.0571,0.0568,0.0571,0.0523,0.0522,0.0416,0.0361,0.0343,0.0261,0.0195,0.0193,0.0141,0.0037,0.0145,0.0262,-0.0024,0.0133,0.0131,0.013,0,0.044,0.0468,0.0512,0.0515,0.0535,0.0574,0.0595,0.062,0.066,0.0702,0.0743,0.0714,0.0715,0.062,0.0481,0.0427,0.0421,0.0317,0.0226,0.0223,0.0265,0.0262,0.0111,0.0296,0.0296,0.0296,0.0296,0,0.0495,0.053,0.0549,0.0569,0.065,0.0649,0.0742,0.0762,0.0823,0.0898,0.0852,0.0909,0.0765,0.0726,0.0575,0.0459,0.0495,0.0289,0.0247,0.0307,0.0308,0.0037,-0.0154,0.0297,0.0297,0.0297,0.0296,0,0.0535,0.0545,0.0598,0.0646,0.0673,0.073,0.0817,0.0888,0.094,0.1042,0.1067,0.1076,0.1046,0.0904,0.077,0.0594,0.033,0.041,0.0502,0.047,0.0081,-0.0104,-0.0225,-0.0383,0.0324,0.0324,0.0324,0,0.0545,0.0578,0.0647,0.0689,0.0713,0.0796,0.0864,0.0935,0.1013,0.114,0.1203,0.1231,0.1264,0.109,0.0854,0.0654,0.036,0.0505,0.0398,0.0111,-0.0128,-0.0225,-0.0359,0.0508,0.0509,0.0511,0.0511,0,0.0566,0.0596,0.0635,0.0727,0.0804,0.0901,0.1004,0.1086,0.1188,0.1298,0.1433,0.1487,0.1382,0.1265,0.0992,0.0794,0.0305,0.0516,0.0208,0.0012,-0.0086,-0.0274,0.0417,0.0522,0.0521,0.052,0.0519,0.0519,0.0568,0.0609,0.067,0.0764,0.086,0.0996,0.1091,0.1221,0.1378,0.1585,0.1613,0.1794,0.1625,0.1305,0.094,0.0398,0.034,0.0197,0.0005,-0.0058,-0.0242,0.0473,0.0515,0.0514,0.0513,0.0513,0.0512,0,0.0559,0.0622,0.0706,0.0826,0.0947,0.1001,0.1179,0.13,0.1499,0.1757,0.1913,0.2088,0.1714,0.1291,0.0637,0.0046,-0.0195,-0.0307,-0.0439,-0.0554,0.0102,0.0073,0.0036,0.0036,0.0036,0.0037,0.0037,0.0037,0.0555,0.0624,0.0686,0.0872,0.0976,0.1149,0.1261,0.1458,0.1677,0.2074,0.236,0.2556,0.2412,0.0978,-0.0144,-0.048,-0.0976,-0.1017,-0.1339,-0.0924,-0.0892,-0.0862,-0.0934,-0.1181,-0.1183,-0.1859,-0.1867,-0.1872]}],[{"header":{"parameterUnit":"m.s-1","parameterCategory":2,"la1":30.2991,"la2":30.254,"lo1":-89.0895,"lo2":-89.0444,"dy":0.0017,"dx":0.0017,"nx":28,"ny":28,"refTime":"2023-07-27T09:00:00:Z","depth":"2","parameterNumber":2,"parameterNumberName":"U-component_of_CURRENTS"},"data":[0,0,0,0,0,0,0,0,0,0,0,0,0,0,0,0,0,0,0,0,0,0,0,0,0,0,0,0,0,0,0,0,0,0,0,0,0,0,0,0,0,0,0,0,0,0,0,0,0,0,0,0,0,0,0,0,0,0,0.2104,0.2106,0,0.2224,0.2225,0.2226,0.2252,0.2251,0.225,0.2249,0.2368,0.2372,0.2375,0,0,0,0,0,0,0,0,0,0,0,0,0,0.1921,0.1924,0.2104,0.2106,0.2107,0.2223,0.2225,0.2226,0.2252,0.2251,0.225,0.2249,0.2367,0.2371,0.2376,0,0,0,0,0,0,0,0,0,0,0,0,0,0.2015,0.1925,0.2104,0.2136,0.214,0.2223,0.2225,0.2227,0.2252,0.2251,0.225,0.2249,0.2365,0.2371,0.2376,0.2433,0,0,0.2394,0.2396,0,0,0,0,0,0,0,0,0.2009,0.2021,0.2129,0.2134,0.2138,0.2223,0.2204,0.2296,0.2252,0.2207,0.2249,0.2248,0.2322,0.2331,0.2353,0.2438,0.2443,0.2394,0.2398,0.24,0.2402,0,0,0,0,0,0,0,0.2003,0.2016,0.2149,0.2131,0.2137,0.2152,0.2164,0.2222,0.2267,0.2211,0.2214,0.223,0.2324,0.2347,0.2356,0.2445,0.2394,0.2399,0.2403,0.2405,0.2692,0.2696,0,0,0,0,0,0,0.1993,0.201,0.2146,0.2153,0.2072,0.2156,0.2169,0.2196,0.2267,0.2277,0.2231,0.2231,0.2338,0.2349,0.236,0.2519,0.24,0.2405,0.2409,0.2688,0.2693,0.2697,0,0,0,0,0,0,0.1988,0.2004,0.2141,0.2085,0.2104,0.216,0.219,0.2198,0.2243,0.2282,0.2292,0.2269,0.2338,0.2352,0.2453,0.252,0.2408,0.2413,0.2683,0.2689,0.2695,0.2781,0,0,0,0,0,0,0.1983,0.2002,0.2027,0.2085,0.2107,0.2213,0.2191,0.2202,0.2254,0.2256,0.2318,0.2326,0.2338,0.2444,0.2458,0.2526,0.2418,0.2677,0.2686,0.2693,0.2773,0.279,0.2804,0,0,0,0,0,0.1976,0.2011,0.2028,0.2045,0.2137,0.2216,0.223,0.2263,0.2257,0.2295,0.2345,0.2326,0.2504,0.2453,0.2468,0.2539,0.2674,0.2683,0.2692,0.2766,0.2787,0.2804,0,0,0,0,0,0,0.1944,0.2019,0.2038,0.2094,0.2162,0.2221,0.2262,0.2282,0.235,0.2358,0.2379,0.2394,0.2507,0.2521,0.2464,0.2649,0.2587,0.26,0.2638,0.2657,0.2672,0.2628,0.2422,0,0,0,0,0,0.1951,0.1999,0.2071,0.2122,0.2158,0.2216,0.2254,0.2284,0.2346,0.2374,0.2419,0.2481,0.2558,0.2602,0.2664,0.2768,0.2759,0.2827,0.2842,0.2855,0.2834,0.291,0.2929,0.2728,0.2728,0.2728,0,0,0.195,0.2001,0.2027,0.2119,0.2173,0.2238,0.2237,0.2313,0.2369,0.2379,0.2478,0.2537,0.2599,0.2714,0.2767,0.2734,0.2911,0.2867,0.2877,0.2848,0.2922,0.2941,0.2957,0.2735,0.2734,0.2732,0,0,0.197,0.2027,0.2071,0.2135,0.2229,0.2274,0.2301,0.2387,0.2429,0.2538,0.2563,0.2659,0.2774,0.283,0.2872,0.3013,0.2989,0.3051,0.3096,0.3172,0.3188,0.3201,0.3215,0.3229,0.306,0.3061,0.3061,0,0.1963,0.2031,0.2098,0.2164,0.2216,0.2291,0.235,0.242,0.2527,0.2573,0.2582,0.277,0.2824,0.2954,0.3009,0.3044,0.3062,0.3014,0.3188,0.3201,0.3213,0.3224,0.3238,0.3066,0.3065,0.3065,0.3064,0,0.2015,0.2077,0.2117,0.222,0.229,0.2362,0.2459,0.2537,0.26,0.2665,0.281,0.2897,0.3,0.3055,0.3077,0.3211,0.3187,0.3193,0.3125,0.3238,0.3243,0.3256,0.3074,0.3072,0.307,0.3069,0,0,0.1969,0.2117,0.2131,0.2177,0.2324,0.2377,0.2496,0.2612,0.2678,0.2807,0.2891,0.3057,0.3103,0.3153,0.321,0.3279,0.3394,0.3279,0.3281,0.3263,0.3529,0.3321,0.3314,0.3441,0.3444,0.3446,0.3495,0,0.1984,0.2089,0.2168,0.2268,0.2329,0.2437,0.2532,0.2652,0.2761,0.2868,0.2986,0.3099,0.3145,0.3205,0.3294,0.3374,0.3434,0.3376,0.3446,0.3446,0.3225,0.3325,0.3115,0.3124,0.3507,0.3509,0.3511,0,0.1999,0.2069,0.2162,0.2281,0.2317,0.2391,0.254,0.264,0.2817,0.2902,0.3046,0.313,0.3282,0.3284,0.347,0.3438,0.3486,0.3527,0.3531,0.3303,0.3262,0.3079,0.3133,0.3532,0.353,0.3529,0.3527,0,0.1923,0.2054,0.2119,0.2168,0.2326,0.2383,0.2477,0.2654,0.2747,0.2929,0.3007,0.3189,0.3293,0.34,0.35,0.3509,0.3645,0.3669,0.3515,0.3499,0.3309,0.3269,0.3768,0.3768,0.3768,0.3767,0.3767,0,0.1904,0.195,0.2086,0.2126,0.22,0.2334,0.245,0.2561,0.2739,0.2851,0.3021,0.3129,0.3335,0.3438,0.3506,0.3531,0.3663,0.3513,0.3506,0.3332,0.3296,0.3637,0.3621,0.3769,0.3769,0.3768,0.3768,0,0.1821,0.1914,0.1982,0.2126,0.2172,0.223,0.2424,0.2513,0.2684,0.2829,0.2886,0.3126,0.3268,0.3387,0.3552,0.3524,0.3563,0.3526,0.3264,0.3222,0.3365,0.3355,0.3383,0.3376,0.3371,0.3366,0.3362,0,0.179,0.1821,0.1954,0.2,0.207,0.2189,0.2279,0.247,0.2571,0.2817,0.2865,0.3054,0.3153,0.3273,0.3277,0.3295,0.3439,0.307,0.3036,0.3339,0.3331,0.3329,0.3326,0.2842,0.2834,0.2828,0.2822,0,0.172,0.1769,0.1828,0.1924,0.201,0.2108,0.2246,0.2302,0.2521,0.2631,0.2788,0.2874,0.2995,0.2938,0.2917,0.2912,0.3046,0.293,0.3371,0.2934,0.2823,0.2816,0.2833,0.2764,0.277,0.2774,0.2778,0.278,0.1657,0.1674,0.176,0.1844,0.1933,0.2007,0.2053,0.2174,0.2277,0.2373,0.2541,0.2574,0.2653,0.2511,0.248,0.2476,0.2663,0.2592,0.2617,0.2648,0.2538,0.2419,0.2263,0.2266,0.2268,0.227,0.2272,0,0.1579,0.1626,0.1687,0.1777,0.183,0.1924,0.2016,0.2027,0.207,0.2152,0.2205,0.2008,0.1979,0.2109,0.2002,0.1979,0.203,0.1941,0.2021,0.2077,0.2127,0.1997,0.1576,0.1574,0.1572,0.157,0,0,0.1538,0.1564,0.1603,0.1658,0.1731,0.1771,0.1797,0.1775,0.1816,0.1717,0.1697,0.1781,0.1975,0.1696,0.1699,0.1643,0.1859,0.1595,0.2151,0.2299,0.2347,0.2491,0.2349,0,0,0,0,0]},{"header":{"parameterUnit":"m.s-1","parameterCategory":2,"la1":30.2991,"la2":30.254,"lo1":-89.0895,"lo2":-89.0444,"dy":0.0017,"dx":0.0017,"nx":28,"ny":28,"refTime":"2023-07-27T09:00:00:Z","depth":"2","parameterNumber":3,"parameterNumberName":"V-component_of_CURRENTS"},"data":[0,0,0,0,0,0,0,0,0,0,0,0,0,0,0,0,0,0,0,0,0,0,0,0,0,0,0,0,0,0,0,0,0,0,0,0,0,0,0,0,0,0,0,0,0,0,0,0,0,0,0,0,0,0,0,0,0,0,-0.0394,-0.0394,0,-0.0391,-0.0391,-0.0391,-0.0403,-0.0403,-0.0403,-0.0403,-0.0446,-0.0447,-0.0448,0,0,0,0,0,0,0,0,0,0,0,0,0,-0.0417,-0.0416,-0.0394,-0.0394,-0.0393,-0.0391,-0.0391,-0.0391,-0.0403,-0.0403,-0.0403,-0.0404,-0.0446,-0.0447,-0.0448,0,0,0,0,0,0,0,0,0,0,0,0,0,-0.041,-0.0416,-0.0394,-0.0399,-0.0399,-0.0391,-0.0391,-0.0391,-0.0402,-0.0403,-0.0403,-0.0404,-0.0446,-0.0447,-0.0448,-0.0447,0,0,-0.0452,-0.0453,0,0,0,0,0,0,0,0,-0.041,-0.0409,-0.0398,-0.0398,-0.0399,-0.0397,-0.0415,-0.0412,-0.0402,-0.0402,-0.0403,-0.0404,-0.0433,-0.0436,-0.0434,-0.0449,-0.0451,-0.0452,-0.0453,-0.0454,-0.0454,0,0,0,0,0,0,0,-0.0411,-0.0409,-0.0393,-0.0398,-0.0398,-0.0403,-0.0403,-0.0414,-0.0416,-0.0402,-0.0402,-0.0401,-0.0434,-0.0433,-0.0435,-0.0452,-0.0452,-0.0453,-0.0454,-0.0455,-0.0441,-0.044,0,0,0,0,0,0,-0.0409,-0.041,-0.0393,-0.0393,-0.0405,-0.0403,-0.0402,-0.0398,-0.0415,-0.0418,-0.0401,-0.0402,-0.043,-0.0434,-0.0437,-0.039,-0.0454,-0.0455,-0.0455,-0.0442,-0.0441,-0.044,0,0,0,0,0,0,-0.0409,-0.0407,-0.0393,-0.0401,-0.04,-0.0402,-0.0396,-0.0397,-0.0387,-0.0414,-0.0418,-0.0388,-0.0431,-0.0435,-0.0431,-0.0394,-0.0455,-0.0457,-0.0444,-0.0442,-0.044,-0.0326,0,0,0,0,0,0,-0.041,-0.0407,-0.0397,-0.0401,-0.0399,-0.0372,-0.0396,-0.0397,-0.0386,-0.0386,-0.0405,-0.041,-0.0432,-0.0429,-0.0432,-0.0397,-0.0458,-0.0445,-0.0443,-0.0441,-0.0332,-0.0321,-0.0312,0,0,0,0,0,-0.0411,-0.0389,-0.0396,-0.0394,-0.0386,-0.0371,-0.037,-0.0374,-0.0384,-0.0368,-0.0383,-0.0408,-0.0418,-0.0429,-0.0433,-0.0397,-0.0446,-0.0443,-0.0441,-0.0336,-0.0323,-0.0312,0,0,0,0,0,0,-0.0382,-0.0389,-0.0396,-0.0375,-0.0368,-0.0372,-0.0355,-0.0364,-0.0362,-0.0361,-0.0394,-0.0399,-0.0382,-0.0409,-0.042,-0.0389,-0.0436,-0.0435,-0.0355,-0.0343,-0.0334,-0.0308,-0.0459,0,0,0,0,0,-0.0374,-0.0363,-0.0368,-0.0347,-0.0342,-0.0348,-0.0341,-0.0343,-0.0346,-0.0345,-0.0355,-0.037,-0.0376,-0.0375,-0.0387,-0.0368,-0.0409,-0.035,-0.034,-0.0331,-0.0314,-0.0344,-0.0335,-0.0431,-0.0431,-0.0431,0,0,-0.0353,-0.0356,-0.0348,-0.034,-0.0336,-0.0311,-0.0344,-0.0322,-0.0296,-0.0351,-0.0313,-0.0337,-0.0366,-0.0342,-0.0337,-0.0357,-0.0328,-0.0328,-0.032,-0.0308,-0.034,-0.0331,-0.0323,-0.043,-0.043,-0.043,0,0,-0.0301,-0.0311,-0.0283,-0.0278,-0.0269,-0.0272,-0.0263,-0.0258,-0.0249,-0.0225,-0.0257,-0.0256,-0.0261,-0.0269,-0.0277,-0.0223,-0.0279,-0.0226,-0.0147,-0.0176,-0.0168,-0.0162,-0.0212,-0.021,-0.0216,-0.0216,-0.0215,0,-0.0272,-0.0243,-0.0268,-0.0241,-0.0223,-0.025,-0.0207,-0.0203,-0.0194,-0.0172,-0.0198,-0.0193,-0.0223,-0.0194,-0.0173,-0.0198,-0.0231,-0.0187,-0.0162,-0.0157,-0.0152,-0.0205,-0.0205,-0.021,-0.0211,-0.0211,-0.0212,0,-0.0207,-0.0178,-0.0158,-0.0136,-0.0123,-0.0088,-0.0092,-0.0067,-0.0066,-0.0062,-0.0031,-0.0071,-0.0063,-0.0076,-0.0105,-0.0076,-0.0117,-0.015,-0.0188,-0.0135,-0.0195,-0.0197,-0.0202,-0.0204,-0.0205,-0.0207,0,0,-0.0145,-0.0115,-0.0105,-0.0068,-0.0063,-0.0034,0.0005,0.0046,0.0099,0.0084,0.0144,0.0119,0.0098,0.0086,0.0045,0.0021,0.0014,-0.0036,-0.004,-0.0079,-0.006,-0.016,-0.0174,-0.0011,-0.001,-0.001,-0.0119,0,-0.0075,0.0003,-0.0008,0.008,0.0125,0.0111,0.0159,0.0185,0.0203,0.0251,0.0205,0.0236,0.0159,0.0172,0.0137,0.0057,0.0016,0.0046,-0.0112,-0.0117,-0.0206,-0.0176,-0.0149,-0.025,-0.0122,-0.0122,-0.0123,0,-0.0002,0.0042,0.0133,0.0207,0.0227,0.0269,0.035,0.0397,0.0431,0.0445,0.045,0.0406,0.0384,0.03,0.0181,0.0207,0.0087,0.0001,-0.0006,-0.0136,-0.022,-0.0282,-0.026,-0.0127,-0.0127,-0.0127,-0.0126,0,0.0068,0.0149,0.0229,0.025,0.0316,0.0367,0.0416,0.0466,0.0535,0.0577,0.0616,0.0562,0.0558,0.0411,0.0218,0.0212,0.0058,0.0022,-0.0192,-0.0202,-0.0229,-0.0242,-0.0081,-0.0081,-0.0081,-0.0081,-0.008,0,0.0147,0.0223,0.0275,0.0323,0.0444,0.0459,0.0596,0.0634,0.0706,0.0802,0.073,0.0767,0.0588,0.0467,0.0269,0.0029,0.0089,-0.0173,-0.023,-0.0192,-0.02,-0.0133,-0.0137,-0.0085,-0.0084,-0.0083,-0.0082,0,0.0226,0.0252,0.0361,0.0445,0.0482,0.0579,0.0714,0.0813,0.0859,0.0978,0.0992,0.094,0.0771,0.053,0.0292,0.0107,-0.0126,-0.0241,-0.0202,-0.0252,-0.038,-0.0377,-0.0462,-0.0466,-0.0469,-0.0473,-0.0475,0,0.0281,0.0338,0.0453,0.0525,0.0573,0.0711,0.0808,0.0892,0.0991,0.1077,0.1131,0.1011,0.09,0.0495,0.0156,-0.0225,-0.0238,-0.0428,-0.0443,-0.0368,-0.0415,-0.0406,-0.0399,-0.0436,-0.0438,-0.044,-0.0441,0,0.0394,0.0424,0.0507,0.064,0.0752,0.0891,0.1028,0.1112,0.1214,0.1273,0.1322,0.1233,0.0854,0.0471,-0.0049,-0.0278,-0.0363,-0.0478,-0.0387,-0.0356,-0.0357,-0.0399,-0.039,-0.0456,-0.0455,-0.0454,-0.0453,-0.0452,0.048,0.0553,0.0643,0.0775,0.0901,0.1042,0.1162,0.1269,0.1392,0.1421,0.136,0.1195,0.0833,0.011,-0.0219,-0.052,-0.0533,-0.0637,-0.0626,-0.0614,-0.0603,-0.0612,-0.0758,-0.0758,-0.0758,-0.0758,-0.0758,0,0.0574,0.065,0.0774,0.0923,0.106,0.1114,0.129,0.1386,0.1501,0.1435,0.1368,0.0919,0.0472,0.0111,-0.0364,-0.0677,-0.0628,-0.0741,-0.0609,-0.0596,-0.0585,-0.0565,-0.0713,-0.0713,-0.0713,-0.0713,0,0,0.0632,0.075,0.0803,0.1027,0.1139,0.1326,0.1423,0.1529,0.1544,0.1391,0.1224,0.092,0.0525,0.0169,-0.0225,-0.0443,-0.0422,-0.0472,-0.0489,-0.0274,-0.0256,-0.0525,-0.0484,0,0,0,0,0]}],[{"header":{"parameterUnit":"m.s-1","parameterCategory":2,"la1":30.2991,"la2":30.254,"lo1":-89.0895,"lo2":-89.0444,"dy":0.0017,"dx":0.0017,"nx":28,"ny":28,"refTime":"2023-07-27T09:00:00:Z","depth":"4","parameterNumber":2,"parameterNumberName":"U-component_of_CURRENTS"},"data":[0,0,0,0,0,0,0,0,0,0,0,0,0,0,0,0,0,0,0,0,0,0,0,0,0,0,0,0,0,0,0,0,0,0,0,0,0,0,0,0,0,0,0,0,0,0,0,0,0,0,0,0,0,0,0,0,0,0,0.0776,0.0776,0,0.0841,0.0842,0.0843,0.0896,0.0896,0.0896,0.0896,0.0986,0.0988,0.099,0,0,0,0,0,0,0,0,0,0,0,0,0,0.0722,0.0723,0.0776,0.0776,0.0776,0.0841,0.0842,0.0844,0.0896,0.0896,0.0896,0.0896,0.0985,0.0988,0.099,0,0,0,0,0,0,0,0,0,0,0,0,0,0.0767,0.0724,0.0776,0.0806,0.081,0.0841,0.0842,0.0844,0.0896,0.0896,0.0896,0.0896,0.0984,0.0987,0.0991,0.101,0,0,0.1001,0.1003,0,0,0,0,0,0,0,0,0.0764,0.077,0.0802,0.0804,0.0808,0.0856,0.0856,0.0899,0.0896,0.0868,0.0896,0.0896,0.0941,0.0948,0.0967,0.1014,0.1018,0.1002,0.1004,0.1005,0.1006,0,0,0,0,0,0,0,0.0761,0.0767,0.0807,0.0802,0.0806,0.0826,0.0833,0.0865,0.0908,0.0871,0.0873,0.0873,0.0944,0.0964,0.0969,0.102,0.1002,0.1005,0.1007,0.1008,0.1108,0.1108,0,0,0,0,0,0,0.0742,0.0764,0.0804,0.0808,0.078,0.0826,0.0834,0.0844,0.0907,0.0915,0.0872,0.0875,0.0958,0.0965,0.0973,0.1044,0.1005,0.1009,0.1011,0.1107,0.1108,0.1108,0,0,0,0,0,0,0.0741,0.0745,0.0802,0.0783,0.0791,0.0826,0.0838,0.0846,0.0898,0.0907,0.0917,0.092,0.0958,0.0968,0.1017,0.1046,0.101,0.1013,0.1107,0.1107,0.1108,0.1157,0,0,0,0,0,0,0.0739,0.0745,0.0771,0.0782,0.0791,0.0832,0.0838,0.0847,0.0893,0.0898,0.0951,0.0957,0.0959,0.1012,0.1021,0.105,0.1016,0.1106,0.1107,0.1108,0.1155,0.116,0.1164,0,0,0,0,0,0.0737,0.0749,0.0772,0.0777,0.0817,0.0833,0.0841,0.0869,0.0895,0.0919,0.0952,0.0957,0.1024,0.1016,0.1026,0.1057,0.1105,0.1107,0.1108,0.1153,0.1159,0.1164,0,0,0,0,0,0,0.0737,0.0756,0.078,0.08,0.0825,0.084,0.0864,0.0892,0.0941,0.0947,0.0975,0.0984,0.1025,0.1037,0.1028,0.1084,0.1062,0.1065,0.1093,0.1098,0.1103,0.1089,0.1019,0,0,0,0,0,0.0749,0.0768,0.0789,0.081,0.0824,0.086,0.0881,0.0893,0.0921,0.0946,0.0993,0.1022,0.1033,0.1065,0.1073,0.1128,0.1121,0.1148,0.1153,0.1157,0.115,0.1164,0.1169,0.1113,0.1113,0.1112,0,0,0.0754,0.0767,0.078,0.0812,0.0838,0.0864,0.0875,0.0897,0.0928,0.0946,0.1027,0.1037,0.1045,0.1083,0.1105,0.1107,0.117,0.1158,0.1162,0.1153,0.1166,0.1172,0.1177,0.1113,0.1113,0.1113,0,0,0.0754,0.0789,0.0806,0.0831,0.086,0.0877,0.0893,0.0936,0.0969,0.1023,0.1033,0.1064,0.1122,0.1127,0.1132,0.1171,0.1177,0.1186,0.1224,0.1239,0.1244,0.1248,0.1251,0.1255,0.1209,0.1209,0.1209,0,0.0748,0.0789,0.0813,0.0837,0.0861,0.0891,0.0916,0.0949,0.1008,0.1038,0.1047,0.1117,0.1129,0.1163,0.1172,0.1181,0.1192,0.1208,0.1245,0.1249,0.1253,0.1255,0.1258,0.1211,0.1211,0.1211,0.121,0,0.0772,0.0809,0.0818,0.0865,0.0896,0.0913,0.0951,0.1,0.1044,0.1076,0.1129,0.1147,0.1194,0.12,0.12,0.1241,0.1241,0.1235,0.1234,0.1262,0.1262,0.1265,0.1215,0.1214,0.1213,0.1213,0,0,0.0727,0.0812,0.082,0.0857,0.0909,0.0929,0.0981,0.1032,0.1077,0.113,0.1186,0.121,0.1241,0.1247,0.1265,0.128,0.1313,0.1284,0.1284,0.129,0.1351,0.1318,0.1318,0.1331,0.1332,0.1332,0.1344,0,0.0734,0.078,0.0828,0.0887,0.0918,0.0967,0.1018,0.1067,0.1115,0.118,0.1196,0.125,0.1255,0.129,0.1307,0.1306,0.1323,0.131,0.132,0.1319,0.1289,0.132,0.1334,0.1346,0.1347,0.1347,0.1347,0,0.0745,0.0777,0.0829,0.0908,0.0928,0.0973,0.1056,0.1112,0.1186,0.1222,0.1279,0.1303,0.1349,0.1336,0.1367,0.137,0.1367,0.1354,0.1355,0.1305,0.1292,0.131,0.1353,0.1352,0.1352,0.1352,0.1351,0,0.0704,0.0779,0.0822,0.085,0.094,0.0985,0.1049,0.1131,0.1177,0.1274,0.1311,0.1361,0.1401,0.1405,0.1413,0.1402,0.1422,0.1401,0.136,0.1358,0.1362,0.1357,0.1405,0.1405,0.1405,0.1405,0.1405,0,0.0686,0.0723,0.0815,0.0841,0.0905,0.0987,0.1065,0.1135,0.1215,0.1273,0.1357,0.1389,0.1423,0.1445,0.143,0.1419,0.145,0.1364,0.1361,0.1382,0.138,0.1364,0.1359,0.1406,0.1406,0.1406,0.1405,0,0.0635,0.0695,0.075,0.0851,0.089,0.0949,0.1068,0.1116,0.1224,0.1299,0.1336,0.1416,0.1463,0.1481,0.148,0.1447,0.1427,0.1412,0.1441,0.144,0.134,0.1338,0.1352,0.1351,0.135,0.1349,0.1348,0,0.0612,0.0633,0.0743,0.0783,0.0837,0.0933,0.0991,0.1107,0.1155,0.1304,0.1321,0.1408,0.1457,0.1429,0.1454,0.1439,0.1421,0.1409,0.1357,0.134,0.1337,0.1335,0.1334,0.1347,0.1347,0.1347,0.1346,0,0.0558,0.0602,0.0649,0.0726,0.0798,0.0868,0.0966,0.0984,0.113,0.1224,0.1286,0.1326,0.1377,0.1382,0.1402,0.138,0.1414,0.1399,0.1399,0.135,0.1335,0.1332,0.1331,0.1343,0.1344,0.1344,0.1344,0,0.0516,0.0531,0.0596,0.0664,0.0743,0.0792,0.0852,0.0925,0.0987,0.1155,0.1164,0.1276,0.1353,0.1353,0.136,0.1359,0.1325,0.1276,0.1282,0.1286,0.1263,0.1234,0.1211,0,0,0,0,0,0.0473,0.0486,0.053,0.0601,0.0674,0.0723,0.0827,0.0887,0.1019,0.1038,0.1101,0.1153,0.1207,0.1247,0.1228,0.1316,0.1316,0.129,0.1259,0.1327,0.133,0.1311,0,0,0,0,0,0,0.0444,0.0479,0.05,0.0535,0.0572,0.0642,0.0707,0.0794,0.0811,0.0949,0.097,0.109,0.1133,0.1195,0.1202,0.1218,0.118,0.1356,0.1354,0.1325,0.1328,0.1331,0.1313,0,0,0,0,0]},{"header":{"parameterUnit":"m.s-1","parameterCategory":2,"la1":30.2991,"la2":30.254,"lo1":-89.0895,"lo2":-89.0444,"dy":0.0017,"dx":0.0017,"nx":28,"ny":28,"refTime":"2023-07-27T09:00:00:Z","depth":"4","parameterNumber":3,"parameterNumberName":"V-component_of_CURRENTS"},"data":[0,0,0,0,0,0,0,0,0,0,0,0,0,0,0,0,0,0,0,0,0,0,0,0,0,0,0,0,0,0,0,0,0,0,0,0,0,0,0,0,0,0,0,0,0,0,0,0,0,0,0,0,0,0,0,0,0,0,-0.0032,-0.0032,0,-0.0097,-0.0098,-0.0099,-0.0119,-0.0118,-0.0118,-0.0117,-0.019,-0.0192,-0.0195,0,0,0,0,0,0,0,0,0,0,0,0,0,0.0023,0.0022,-0.0032,-0.0032,-0.0033,-0.0097,-0.0098,-0.0099,-0.0119,-0.0118,-0.0117,-0.0117,-0.0189,-0.0192,-0.0195,0,0,0,0,0,0,0,0,0,0,0,0,0,-0.002,0.0022,-0.0032,-0.0049,-0.005,-0.0097,-0.0098,-0.01,-0.0119,-0.0118,-0.0117,-0.0116,-0.0188,-0.0192,-0.0195,-0.0235,0,0,-0.0207,-0.0208,0,0,0,0,0,0,0,0,-0.0017,-0.0022,-0.0045,-0.0047,-0.005,-0.0097,-0.0105,-0.0144,-0.0119,-0.0096,-0.0117,-0.0116,-0.0158,-0.0164,-0.0182,-0.0238,-0.0241,-0.0207,-0.0209,-0.0211,-0.0212,0,0,0,0,0,0,0,-0.0014,-0.002,-0.006,-0.0046,-0.0049,-0.0071,-0.0076,-0.0113,-0.0133,-0.0098,-0.0099,-0.0102,-0.016,-0.0178,-0.0184,-0.0242,-0.0207,-0.021,-0.0212,-0.0214,-0.0348,-0.0349,0,0,0,0,0,0,0.0001,-0.0017,-0.0058,-0.0062,-0.0028,-0.0072,-0.0078,-0.0085,-0.0132,-0.0138,-0.0103,-0.0103,-0.0173,-0.018,-0.0186,-0.0242,-0.0211,-0.0214,-0.0216,-0.0347,-0.0348,-0.035,0,0,0,0,0,0,0.0002,-0.0003,-0.0055,-0.0038,-0.0046,-0.0073,-0.0081,-0.0086,-0.011,-0.0136,-0.0142,-0.0122,-0.0172,-0.0181,-0.0225,-0.0244,-0.0216,-0.0219,-0.0345,-0.0347,-0.0349,-0.0348,0,0,0,0,0,0,0.0004,-0.0002,-0.0009,-0.0038,-0.0047,-0.0083,-0.0082,-0.0088,-0.0112,-0.0113,-0.0154,-0.016,-0.0172,-0.022,-0.0229,-0.0249,-0.0222,-0.0343,-0.0346,-0.0348,-0.0347,-0.035,-0.0353,0,0,0,0,0,0.0006,-0.0005,-0.0009,-0.0015,-0.0054,-0.0084,-0.0091,-0.0109,-0.0114,-0.0128,-0.0156,-0.0159,-0.0242,-0.0224,-0.0235,-0.0256,-0.0342,-0.0345,-0.0348,-0.0345,-0.0349,-0.0353,0,0,0,0,0,0,0.0007,-0.0008,-0.0014,-0.0031,-0.0055,-0.0086,-0.0103,-0.0117,-0.0152,-0.0151,-0.0179,-0.0187,-0.0229,-0.025,-0.0229,-0.0303,-0.0292,-0.0298,-0.0287,-0.0291,-0.0294,-0.0268,-0.0225,0,0,0,0,0,0.0007,0.0,-0.0024,-0.0039,-0.0052,-0.0081,-0.0098,-0.0106,-0.0136,-0.0151,-0.0188,-0.0222,-0.0252,-0.0275,-0.0305,-0.0353,-0.0363,-0.0374,-0.0377,-0.038,-0.0367,-0.0409,-0.0414,-0.036,-0.036,-0.036,0,0,0.0003,-0.0006,-0.0011,-0.0038,-0.006,-0.0079,-0.009,-0.0112,-0.0127,-0.0155,-0.0202,-0.0234,-0.0266,-0.031,-0.0332,-0.033,-0.0403,-0.0383,-0.0385,-0.0371,-0.0413,-0.0418,-0.0422,-0.0362,-0.0361,-0.0361,0,0,0.0001,-0.0017,-0.0021,-0.0041,-0.0064,-0.0082,-0.0089,-0.0129,-0.0147,-0.0189,-0.0211,-0.0254,-0.0314,-0.034,-0.0358,-0.0401,-0.0413,-0.042,-0.0421,-0.0463,-0.0467,-0.0471,-0.0492,-0.0497,-0.0427,-0.0427,-0.0427,0,0.0004,-0.0008,-0.003,-0.0041,-0.0054,-0.0083,-0.0092,-0.012,-0.0171,-0.0188,-0.0198,-0.029,-0.0321,-0.0368,-0.0382,-0.0406,-0.0426,-0.0401,-0.0465,-0.0469,-0.0473,-0.0493,-0.0499,-0.0428,-0.0428,-0.0427,-0.0427,0,-0.0005,-0.0014,-0.0023,-0.004,-0.0061,-0.0075,-0.0106,-0.0135,-0.0161,-0.0188,-0.0244,-0.0296,-0.0346,-0.0373,-0.0389,-0.0441,-0.0445,-0.0457,-0.0448,-0.0478,-0.0498,-0.0505,-0.0428,-0.0428,-0.0428,-0.0428,0,0,0.001,-0.0017,-0.0019,-0.002,-0.0056,-0.0069,-0.0098,-0.0128,-0.0143,-0.0205,-0.0235,-0.0304,-0.0338,-0.0361,-0.0403,-0.0446,-0.0496,-0.0465,-0.0467,-0.0472,-0.0578,-0.0544,-0.0547,-0.0524,-0.0525,-0.0526,-0.0581,0,0.0015,0.0013,-0.0011,-0.0021,-0.0026,-0.0058,-0.0081,-0.0112,-0.0149,-0.0192,-0.0248,-0.0295,-0.0332,-0.0361,-0.0411,-0.0473,-0.0513,-0.0478,-0.0559,-0.0561,-0.0516,-0.0554,-0.053,-0.0586,-0.0587,-0.0588,-0.0589,0,0.0013,0.0017,0.0017,0.0007,-0.0,-0.0013,-0.0042,-0.0067,-0.0126,-0.0154,-0.0214,-0.0264,-0.034,-0.0363,-0.0479,-0.0458,-0.0513,-0.0559,-0.0563,-0.053,-0.0539,-0.0553,-0.0601,-0.06,-0.0599,-0.0598,-0.0598,0,0.0043,0.0034,0.0044,0.0036,0.0014,0.001,-0.0006,-0.0054,-0.0068,-0.0136,-0.0154,-0.0252,-0.0296,-0.0387,-0.0488,-0.049,-0.0604,-0.0617,-0.0635,-0.0632,-0.0644,-0.064,-0.0688,-0.0688,-0.0688,-0.0688,-0.0688,0,0.0059,0.0063,0.0063,0.0066,0.0076,0.0045,0.004,0.001,-0.0028,-0.004,-0.0134,-0.0165,-0.0306,-0.039,-0.0481,-0.0575,-0.0602,-0.0631,-0.0648,-0.0644,-0.0639,-0.0649,-0.0643,-0.069,-0.0689,-0.0689,-0.0689,0,0.0077,0.0077,0.0088,0.0087,0.009,0.0093,0.0084,0.0078,0.0037,0.0019,0.0001,-0.0105,-0.0218,-0.035,-0.0496,-0.0552,-0.0652,-0.0675,-0.065,-0.0664,-0.0652,-0.0647,-0.0698,-0.0697,-0.0697,-0.0696,-0.0696,0,0.0084,0.0096,0.0112,0.0126,0.0125,0.0132,0.0138,0.0112,0.0112,0.006,0.0058,-0.0053,-0.0134,-0.0308,-0.0455,-0.0622,-0.0641,-0.0682,-0.0678,-0.0644,-0.0655,-0.065,-0.0646,-0.0695,-0.0695,-0.0695,-0.0694,0,0.0099,0.0106,0.0117,0.0154,0.017,0.0185,0.0198,0.0212,0.0185,0.0156,0.0114,0.0008,-0.0114,-0.0278,-0.0411,-0.0532,-0.0654,-0.0676,-0.0678,-0.0675,-0.0641,-0.0652,-0.0648,-0.0692,-0.0693,-0.0693,-0.0693,0,0.0107,0.0118,0.0142,0.0172,0.02,0.0228,0.0233,0.024,0.0238,0.0199,0.0187,0.004,-0.005,-0.0231,-0.0355,-0.0473,-0.0499,-0.0519,-0.053,-0.0534,-0.0473,-0.0406,-0.0397,0,0,0,0,0,0.0113,0.0128,0.0159,0.0192,0.0226,0.024,0.0266,0.0268,0.0264,0.0254,0.0227,0.0116,-0.0071,-0.0169,-0.0278,-0.0358,-0.0531,-0.0487,-0.0563,-0.0681,-0.0684,-0.0638,0,0,0,0,0,0,0.0112,0.0139,0.0157,0.0208,0.0235,0.0269,0.0285,0.0283,0.0278,0.026,0.0157,0.0109,-0.0087,-0.0008,-0.0276,-0.0315,-0.0371,-0.0584,-0.0585,-0.068,-0.0682,-0.0684,-0.0638,0,0,0,0,0]}]]